Home   Weather   1°18'N, 103°45'E   Past weeks
Flag for Singapore

Past Weather in 1°18'N, 103°45'E, Singapore — Yesterday and Last 2 Weeks

Now
82 °F

Partly sunny.


Feels Like: 89 °F
Forecast: 89 / 80 °F
Wind: 1 mph from Northeast

Location: Singapore / Paya Lebar

Current Time: Oct 20, 2019 at 7:27:13 am

Latest Report: Oct 20, 2019 at 7:00 am


Visibility: 6 mi

Pressure: 29.80 "Hg

Humidity: 79%

Dew Point: 75 °F

Location of 1°18'N, 103°45'ELocation

Past Weather in 1°18'N, 103°45'E — Graph

°F

1°18'N, 103°45'E Temperature Yesterday

Maximum temperature yesterday: 93 °F (at 2:00 pm)
Minimum temperature yesterday: 81 °F (at 4:00 am)
Average temperature yesterday: 86 °F

High & Low Weather Summary for the Past Weeks

 TemperatureHumidityPressure
High95 °F (Oct 11, 2:00 pm)94% (Oct 7, 2:35 pm)29.89 "Hg (Oct 7, 2:35 pm)
Low77 °F (Oct 7, 10:13 am)39% (Oct 14, 3:00 pm)29.71 "Hg (Oct 16, 4:00 pm)
Average85 °F75%29.81 "Hg
* Reported Oct 5 6:00 am — Oct 20 6:00 am, 1°18'N, 103°45'E. Weather by CustomWeather, © 2019

Note: Actual official high and low records may vary slightly from our data, if they occured in-between our weather recording intervals... More about our weather records

Advertising

1°18'N, 103°45'E Weather History for the Previous 24 Hours

Scroll right to see more
 ConditionsComfort  
Time TempWeatherWind HumidityBarometerVisibility
6:00 am
Sun, Oct 20
81 °FPassing clouds.No wind89%29.80 "HgN/A
5:00 am82 °FPassing clouds.No wind84%29.80 "HgN/A
4:00 am82 °FPassing clouds.2 mph84%29.80 "HgN/A
3:00 am82 °FPassing clouds.3 mph84%29.80 "HgN/A
2:00 am82 °FPassing clouds.2 mph84%29.83 "HgN/A
1:00 am82 °FPassing clouds.2 mph84%29.83 "HgN/A
12:00 am84 °FPassing clouds.3 mph79%29.83 "HgN/A
11:00 pm
Sat, Oct 19
82 °FPassing clouds.3 mph84%29.86 "HgN/A
10:00 pm84 °FPassing clouds.5 mph79%29.86 "HgN/A
9:00 pm84 °FPassing clouds.5 mph79%29.83 "HgN/A
8:00 pm86 °FThunderstorms. Passing clouds.6 mph79%29.80 "HgN/A
7:00 pm88 °FPassing clouds.5 mph70%29.80 "HgN/A
6:00 pm88 °FPartly sunny.5 mph62%29.77 "HgN/A
5:00 pm86 °FBroken clouds.8 mph66%29.74 "HgN/A
4:00 pm91 °FScattered showers. Partly sunny.12 mph59%29.74 "Hg5 mi
3:00 pm93 °FPartly sunny.12 mph63%29.77 "Hg5 mi
2:00 pm93 °FPartly sunny.8 mph53%29.77 "HgN/A
1:00 pm91 °FThunderstorms. Partly sunny.9 mph52%29.80 "HgN/A
12:00 pm91 °FPartly sunny.8 mph52%29.86 "HgN/A
11:00 am91 °FPartly sunny.6 mph59%29.86 "HgN/A
10:00 am88 °FPartly sunny.1 mph66%29.86 "Hg5 mi
9:00 am82 °FPartly sunny.No wind79%29.86 "Hg4 mi
8:00 am82 °FPartly sunny.2 mph89%29.83 "Hg4 mi
7:00 am84 °FPartly sunny.No wind84%29.83 "Hg4 mi
Weather by CustomWeather, © 2019

See weather overview